Октябрьское

Казахстан     52°06′37″N   65°40′30″E
темп.,
°C
ветер,
м/с
пор.,
м/с
влажн.,
%
обл.,
%
осадки,
мм/ч
давл.,
гПа
погр.,
м
1 марта, пн
пн123:000юз71296100 0.8 1004670
02:00−2юз7139490 0.3 1005519
05:00−4зюз6119592 0.4 1007372
08:00−10сз359697 0.3 1009106
11:00−10сз349496 0.4 1012237
14:00−9зсз3492100 0.1 1014319
17:00−11зсз3395100 0.1 101675
20:00−14зсз2297100 0.1 101721
2 марта, вт
вт223:00−16з119891 0.1 101820
02:00−14юз229694 0.2 101822
05:00−14зюз239696 0.4 101745
08:00−15юз349694 0.1 1017109
11:00−13юз469391 0.2 1017314
14:00−12юз6893100 0.1 1016410
17:00−12юз61092100 0.1 1016476
20:00−16юз61295100 0.1 1017343
3 марта, ср
ср323:00−19юз71395100 0.1 1017291
02:00−18юз8149394 0.0 1016289
05:00−17юз8139396 0.1 1015339
08:00−15ююз81592100 0.1 1014359
11:00−11ююз101691100 0.1 1013463
14:00−7юз101691100 0.2 1011660
17:00−4юз101693100 0.6 1010833
20:00−3юз91693100 0.4 1009787
4 марта, чт
чт423:00−3юз91594100 1.0 1009764
02:00−2ююз91594100 0.8 1006750
05:00−1ююз91696100 1.6 1005876
08:00−1юз101696100 1.3 1003868
11:00−1юз101494100 2.0 1004863
14:00−1юз91395100 0.8 1005944
17:00−1зюз61097100 1.8 1006605
20:00−9зсз599185 0.7 1008155
5 марта, пт
пт523:00−13з459142 0.7 101276
02:00−14зюз58920 0.0 1014135
05:00−13юз713880 0.0 1015240
08:00−13юз917893 0.0 1015401
11:00−9юз12199050 0.1 1015664
14:00−5юз131990100 0.2 1014936
17:00−3юз131989100 0.4 10151054
20:00−4юз121891100 0.3 1016915